Terminal Aerodrome Forecast
Issued by NWS

Home | Current Version | Previous Version | Text Only | Print | Product List | Glossary On
Versions: 1 2 3 4 5 6 7 8 9 10 11 12
000
FTUS46 KHNX 291100
TAFMCE
TAF
KMCE 291124Z 2912/3012 VRB04KT P6SM BKN120
     FM292100 33010KT P6SM FEW060 BKN120
     FM300400 30005KT P6SM SCT120=

USA.gov is the U.S. government's official web portal to all federal, state and local government web resources and services.